SPIRALE A

Last updated on Wed Jun 28 2023 00:03:42 GMT+0000 (Coordinated Universal Time)

1 33751U 09008C 23178.00599970 .00000373 00000+0 82845-3 0 9998 2 33751 2.0231 260.6066 5490448 235.1847 60.6670 4.59039212211935

Satellite not in orbit

SPIRALE A